User: anonymous   Login
Location: Caltech
(34.1382°N, 118.1253°W)
Time: 13:11:50
(UTC-08:00)
Language:

Cosmos 1833 - Orbit

View from above orbital plane
View from above orbital plane
View from above satellite
View from above satellite

Ground track
Ground track

The orbit data is extracted from the following two-line orbital elements,

1 17589U 87027A   14325.64835649  .00000165  00000-0  11423-3 0  8674
2 17589 070.9207 356.9955 0013262 281.4364 216.6878 14.12854672427743
Epoch (UTC): 21 November 2014 15:33:38
Eccentricity: 0.0013262
inclination: 70.9207°
perigee height: 840 km
apogee height: 859 km
right ascension of ascending node: 356.9955°
argument of perigee: 281.4364°
revolutions per day: 14.12854672
mean anomaly at epoch: 216.6878°
orbit number at epoch: 42774

The dashed part of the orbit path shows where the satellite is in the earth's shadow,  

DLR